www.pogodaiklimat.ru

Погода и климат >> Архив погоды >> Россия >> Челябинская область >> Катав-Ивановск


ПОГОДА в Катав-Ивановске

  • Прогноз погоды в Катав-Ивановске
  • Монитор погоды в Катав-Ивановске
  • Климат города

АРХИВ ПОГОДЫ в Катав-Ивановске

Время (UTC), дата Ветер
(напр.,м/с)
 
Видим.   Явления Облачность Т
(С)
Тd
(С)
f
(%)
Тe
(С)
Тes
(С)
Комфортность P
(гПа)
Po
(гПа)
Тmin
(С)
Tmax
(С)
R
(мм)
R24
(мм)
S
(см)
06 17.08 З 1 1000 м туман ?/? +13.5 +13.5 100 +14 +14 1027.2 971.0
09 17.08 С 2 50 км {туман} 8/6 600 м
[Cu hum Ci fib]
+20.7 +11.1 54 +23 +27 комфорт 1025.2 970.4
12 17.08 С 3 50 км {туман} 4/0
[Ci fib]
+20.3 +8.9 48 +22 +26 комфорт 1024.8 969.9
15 17.08 С 2 50 км 6/0
[Ci fib]
+17.6 +8.0 53 +18 +18 1025.5 970.1 +20.9
18 17.08 ЮВ 1 4000 м ясно +10.9 +10.1 95 +10 +10 1027.6 970.8
21 17.08 штиль 0 4000 м ясно +9.1 +9.1 100 +8 +8 1028.3 971.1
00 18.08 штиль 0 4000 м 4/4 600 м
[Cu hum]
+8.1 +8.1 100 +7 +7 1028.3 970.9
03 18.08 штиль 0 20 км 6/6 600 м
[Cu hum]
+9.2 +9.2 100 +8 +9 1028.7 971.5 +7.8
06 18.08 СЗ 1 50 км 8/3 600 м
[Cu hum Ci fib]
+17.5 +10.7 64 +19 +25 1026.6 971.1
09 18.08 З 1 50 км 10/3 600 м
[Cu hum Ci sp]
+20.8 +8.5 45 +23 +31 комфорт 1025.3 970.5
12 18.08 СВ 2 50 км 8/1 600 м
[Cu hum Ci fib]
+20.9 +9.9 49 +23 +27 комфорт 1024.6 969.8
15 18.08 С 2 50 км 3/0
[Ci fib]
+18.1 +9.0 55 +19 +19 1024.8 969.5 +21.3
18 18.08 штиль 0 4000 м ясно +11.4 +11.0 97 +11 +11 1026.5 969.9
21 18.08 штиль 0 4000 м ясно +9.6 +9.6 100 +9 +9 1026.8 969.8
00 19.08 штиль 0 4000 м 3/0 600 м
[Ci fib]
+8.7 +8.7 100 +8 +8 1026.8 969.6
03 19.08 ЮВ 1 20 км 3/0
[Ac cast]
+9.7 +9.7 100 +9 +11 1026.8 969.8 +7.8
06 19.08 СЗ 2 50 км 3/0
[Ci fib]
+17.0 +11.2 69 +17 +26 1025.3 969.8
09 19.08 С 3 50 км 4/4 600 м
[Cu hum]
+20.5 +10.1 51 +22 +28 комфорт 1024.1 969.3
12 19.08 С 3 50 км 3/0
[Ci fib]
+20.5 +8.2 45 +22 +26 комфорт 1024.0 969.2
15 19.08 С 1 50 км 3/0
[Ci fib]
+17.7 +6.2 47 +19 +19 1025.0 969.6 +21.1
18 19.08 штиль 0 4000 м ясно +10.4 +9.3 93 +10 +10 1026.7 969.9
21 19.08 Ю 1 4000 м ясно +7.4 +7.4 100 +6 +6 1027.4 969.9
00 20.08 Ю 1 4000 м 3/0
[Ac lent]
+6.2 +6.2 100 +5 +5 1027.5 969.8
03 20.08 В 1 20 км 4/0
[Ci fib]
+7.9 +7.5 97 +7 +9 1027.5 970.1 +5.5
06 20.08 С 1 50 км 3/0
[Ci fib]
+16.7 +10.2 65 +18 +28 1025.3 969.8
09 20.08 С 1 50 км 3/0
[Ci fib]
+16.7 +10.2 65 +18 +30 опасность
простуды
1025.3 969.8
12 20.08 СЗ 1 50 км 1/0
[Ci fib]
+21.6 +9.3 45 +23 +28 комфорт 1022.9 968.4
15 20.08 штиль 0 50 км 4/0
[Ci fib]
+17.9 +11.4 66 +18 +18 1023.5 968.3 +22.2
18 20.08 ЮВ 2 4000 м ясно +13.7 +12.9 95 +13 +13 1024.8 968.8
21 20.08 В 1 4000 м ясно +13.0 +12.6 97 +13 +13 1024.2 968.1
00 21.08 ЮВ 1 4000 м {ливн. осадки} 8/8 600 м
[Sc]
+10.3 +10.3 100 +10 +10 1024.8 968.1
03 21.08 ЮВ 1 20 км 3/0
[Ac trans]
+11.0 +11.0 100 +11 +12 1025.1 968.6 +10.1 0.6
06 21.08 С 1 50 км 4/4 600 м
[Cu hum]
+19.8 +12.8 64 +23 +29 комфорт 1023.5 968.7
09 21.08 З 1 50 км 6/6 600 м
[Cu hum]
+22.4 +12.4 53 +25 +30 комфорт 1022.3 968.0
12 21.08 С 2 50 км 3/3 600 м
[Cu hum]
+23.5 +12.1 49 +25 +28 комфорт 1021.5 967.4
15 21.08 штиль 0 50 км ясно +20.4 +12.7 61 +22 +22 комфорт 1022.1 967.4 +23.8
18 21.08 ЮВ 1 4000 м ясно +14.0 +13.9 99 +14 +14 1024.1 968.2
21 21.08 штиль 0 4000 м ясно +12.0 +12.0 100 +11 +11 1025.0 968.6
00 22.08 ЮВ 2 4000 м ясно +10.6 +10.6 100 +9 +9 1025.8 969.1
03 22.08 ЮВ 1 20 км туман на расстоянии ясно +11.3 +11.3 100 +11 +13 1026.8 970.2 +9.2
06 22.08 С 1 50 км ясно +21.3 +13.8 62 +24 +34 комфорт 1025.2 970.6
09 22.08 С 2 50 км 3/3 600 м
[Cu hum]
+24.8 +11.8 44 +26 +34 жарко 1024.1 970.1
12 22.08 СВ 2 50 км 3/3 600 м
[Cu hum]
+26.1 +10.5 38 +27 +30 жарко 1023.4 969.6
15 22.08 Ю 1 50 км ясно +20.8 +12.6 59 +24 +24 комфорт 1024.4 969.7 +26.2
18 22.08 Ю 1 4000 м ясно +14.8 +14.5 98 +15 +15 1026.7 970.8
21 22.08 ЮВ 3 4000 м ясно +12.8 +12.6 99 +11 +11 1027.6 971.3
00 23.08 ЮВ 1 4000 м ясно +11.2 +11.2 100 +11 +11 1028.5 971.7
03 23.08 ЮВ 1 50 км ясно +12.1 +11.1 94 +12 +14 1029.2 972.6 +9.8
06 23.08 С 1 50 км ясно +22.5 +13.0 55 +25 +36 комфорт 1026.9 972.4
09 23.08 Ю 1 50 км ясно +28.5 +8.0 28 +28 +41 жарко 1025.2 971.8
12 23.08 З 1 50 км ясно +29.0 +6.6 24 +28 +33 жарко 1025.1 971.7
15 23.08 Ю 2 50 км ясно +23.0 +10.0 44 +25 +25 комфорт 1025.5 971.1 +29.5
18 23.08 Ю 1 4000 м ясно +14.8 +11.2 79 +15 +15 1027.8 971.8
21 23.08 ЮВ 2 4000 м ясно +11.2 +10.8 97 +10 +10 1028.7 971.9
00 24.08 Ю 2 4000 м ясно +10.7 +10.3 97 +9 +9 1028.9 972.0
03 24.08 Ю 1 20 км ясно +12.2 +10.2 88 +12 +14 1028.8 972.2 +9.6

 

Местоположение метеостанции Катав-Ивановск (Челябинская область, Россия): широта 54.77 долгота 58.22 высота над уровнем моря 477 м.

В архиве по умолчанию представлена погода в Катав-Ивановске за последнюю неделю. Архивные данные за месяц целиком и за предыдущие месяцы, начиная с января 2011 года, Вы можете получить, выбрав интересующий диапазон дат из раскрывающегося списка и нажав кнопку "Ввод!".

Внимание! Время в таблицах - всемирное. Для получения местного времени необходимо прибавить поправку, которая в Катав-Ивановске равна 5 ч.

Смотрите также архив погоды в соседних городах и на ближайших метеорологических станциях:

Погода в Улу-Теляке (Башкирия, Россия) (83 км)
Погода в Учалах (Башкирия, Россия) (90 км)
Погода в Белорецке (Башкирия, Россия) (94 км)
Погода в Архангельском (Башкирия, Россия) (100 км)
Погода в Златоусте (Челябинская область, Россия) (103 км)
Погода в Дуване (Башкирия, Россия) (105 км)
Погода в Тукане (Башкирия, Россия) (109 км)
Погода в Верхнеуральске (Челябинская область, Россия) (118 км)
Погода в Миассе (Челябинская область, Россия) (122 км)
Погода в Емашах (Башкирия, Россия) (131 км)

Пояснения к столбцам:

Ветер - указаны скорость ветра в м/с - средняя за 10 мин, порывы в срок и между сроками (в фигурных скобках) и направление, откуда дует ветер: С - северный, СВ - северо-восточный, В - восточный, ЮВ - юго-восточный, Ю - южный, ЮЗ - юго-западный, З - западный, СЗ - северо-западный.
Видимость - горизонтальная дальность видимости в метрах или километрах. При видимости от 1 до 10 км при отсутствии осадков обычно наблюдается дымка, при ухудшении видимости до 1 км и менее - туман. В сухую погоду видимость может ухудшаться дымом, пылью или мглою.
Явления - указаны атмосферные явления, наблюдавшиеся в срок или в последний час перед сроком; фигурными скобками обозначены явления, наблюдавшиеся между сроками (за 1-3 часа до срока); квадратными скобками обозначены град или гололедные отложения с указанием их диаметра в мм.
Облачность - указаны через наклонную черту общая и нижняя облачность в баллах и высота нижней границы облаков в метрах; квадратными скобками обозначены формы облаков: Ci - перистые, Cs - перисто-слоистые, Cc - перисто-кучевые, Ac - высококучевые, As - высокослоистые, Sc - слоисто-кучевые, Ns - слоисто-дождевые, Cu - кучевые, Cb - кучево-дождевые. Подробнее классификацию облаков см. в Атласе облаков (PDF).
T - Температура воздуха - температура, измеренная на высоте 2 м над землей.
Td - Температура точки росы - температура, при понижении до которой содержащийся в воздухе водяной пар достигнет насыщения.
f - Относительная влажность воздуха - влажноcть воздуха, измеренная на высоте 2 м над землей.
Te - Эффективная температура - температура, которую ощущает одетый по сезону человек в тени. Характеристика душности погоды. При расчете учитывается влияние влажности воздуха и скорости ветра на теплоощущения человека.
Tes - Эффективная температура на солнце - температура, которую ощущает человек, с поправкой на солнечный нагрев. Характеристика знойности погоды. Зависит от высоты солнца над горизонтом, облачности и скорости ветра. Ночью, в пасмурную погоду, а также при ветре 12 м/с и более поправка равна нулю.
P - Атмосферное давление - приведенное к уровню моря атмосферное давление.
Po - Атмосферное давление - измеренное на уровне метеостанции атмосферное давление.
Tmin - Минимальная температура - минимум температуры воздуха на высоте 2 м над землей.
Tmax - Максимальная температура - максимум температуры воздуха на высоте 2 м над землей.
R - Количество осадков - Количество выпавших осадков за период времени, мм. При наведении курсора мыши на число - период времени, за который выпало указанное количество осадков.
R24 - Количество осадков - Количество выпавших осадков за 24 часа, мм.
S - Снежный покров - Высота снежного покрова, см. При наведении курсора мыши на число - состояние снежного покрова и степень покрытия местности в баллах.